AZA192 BKPR-LYBE

Flight info

Callsign AZA192
Flight time 0h 33m
Altitude 22000
Route REDVA1F BUI KRV BGD
Aircraft DC93/M-SDE/C

Departure

Time 2026-04-26 18:25
Airport Priština Adem Jashari International Airport (BKPR)

Arrival

Time 2026-04-26 18:59
Airport Belgrade Nikola Tesla Airport (LYBE)
Time Latitude Longitude Altitude Speed Heading
2026-04-26 18:01 42.58465 21.03096 1773 ft 0 kts 302°
2026-04-26 18:15 42.58462 21.03109 1778 ft 4 kts 261°
2026-04-26 18:15 42.58476 21.03135 1777 ft 4 kts 180°
2026-04-26 18:15 42.58483 21.03135 1776 ft 0 kts 176°
2026-04-26 18:20 42.58477 21.03136 1779 ft 1 kts 167°
2026-04-26 18:20 42.58464 21.03141 1777 ft 2 kts 163°
2026-04-26 18:20 42.58443 21.03149 1777 ft 4 kts 163°
2026-04-26 18:20 42.58435 21.03153 1778 ft 4 kts 159°
2026-04-26 18:21 42.58392 21.03209 1777 ft 6 kts 134°
2026-04-26 18:21 42.58352 21.03236 1776 ft 7 kts 173°
2026-04-26 18:21 42.58301 21.03243 1777 ft 8 kts 178°
2026-04-26 18:21 42.58239 21.03247 1775 ft 11 kts 176°
2026-04-26 18:22 42.58122 21.03257 1776 ft 23 kts 176°
2026-04-26 18:22 42.57926 21.03278 1776 ft 33 kts 175°
2026-04-26 18:22 42.57662 21.03305 1777 ft 42 kts 175°
2026-04-26 18:22 42.57342 21.03337 1775 ft 50 kts 175°
2026-04-26 18:23 42.56976 21.03375 1775 ft 56 kts 175°
2026-04-26 18:23 42.56594 21.03415 1776 ft 53 kts 175°
2026-04-26 18:23 42.56378 21.03435 1774 ft 18 kts 167°
2026-04-26 18:23 42.56331 21.03490 1772 ft 9 kts 116°
2026-04-26 18:24 42.56313 21.03541 1775 ft 9 kts 115°
2026-04-26 18:24 42.56295 21.03627 1771 ft 10 kts 81°
2026-04-26 18:24 42.56339 21.03684 1771 ft 8 kts
2026-04-26 18:24 42.56395 21.03677 1773 ft 8 kts 354°
2026-04-26 18:25 42.56543 21.03661 1771 ft 52 kts 356°
2026-04-26 18:25 42.57154 21.03599 1778 ft 120 kts 356°
2026-04-26 18:25 42.58160 21.03552 1929 ft 163 kts 359°
2026-04-26 18:25 42.59388 21.03324 2482 ft 195 kts 339°
2026-04-26 18:26 42.60366 21.01946 3032 ft 226 kts 287°
2026-04-26 18:26 42.60171 20.99752 3533 ft 250 kts 245°
2026-04-26 18:26 42.59090 20.97923 4410 ft 250 kts 228°
2026-04-26 18:26 42.57837 20.96270 5265 ft 255 kts 226°
2026-04-26 18:27 42.56498 20.94609 6147 ft 266 kts 224°
2026-04-26 18:27 42.55087 20.92928 7022 ft 274 kts 224°
2026-04-26 18:27 42.53624 20.91224 7900 ft 280 kts 224°
2026-04-26 18:27 42.52410 20.89185 8782 ft 279 kts 244°
2026-04-26 18:28 42.51645 20.86770 9704 ft 280 kts 254°
2026-04-26 18:28 42.51018 20.84229 10647 ft 287 kts 255°
2026-04-26 18:28 42.50423 20.81634 11696 ft 297 kts 255°
2026-04-26 18:28 42.49814 20.78911 12812 ft 306 kts 255°
2026-04-26 18:29 42.49184 20.76132 13960 ft 311 kts 255°
2026-04-26 18:29 42.48551 20.73303 15009 ft 315 kts 255°
2026-04-26 18:29 42.47899 20.70468 16092 ft 316 kts 254°
2026-04-26 18:29 42.47283 20.67612 17210 ft 313 kts 263°
2026-04-26 18:30 42.47353 20.64711 18258 ft 311 kts 288°
2026-04-26 18:30 42.48350 20.62130 19094 ft 312 kts 313°
2026-04-26 18:30 42.50047 20.60316 19943 ft 312 kts 330°
2026-04-26 18:30 42.51937 20.58844 20788 ft 313 kts 329°
2026-04-26 18:31 42.53798 20.57309 21654 ft 313 kts 330°
2026-04-26 18:31 42.55703 20.55764 22162 ft 327 kts 330°
2026-04-26 18:31 42.57735 20.54120 22157 ft 352 kts 330°
2026-04-26 18:31 42.59909 20.52369 22177 ft 373 kts 330°
2026-04-26 18:32 42.62159 20.50560 22200 ft 388 kts 330°
2026-04-26 18:32 42.64543 20.48648 22183 ft 407 kts 330°
2026-04-26 18:32 42.67048 20.46644 22151 ft 426 kts 331°
2026-04-26 18:32 42.69653 20.44562 22118 ft 442 kts 331°
2026-04-26 18:33 42.72352 20.42408 22091 ft 456 kts 330°
2026-04-26 18:33 42.75181 20.40365 22097 ft 465 kts 340°
2026-04-26 18:33 42.78349 20.39355 22127 ft 472 kts 356°
2026-04-26 18:33 42.81630 20.39594 22144 ft 476 kts 12°
2026-04-26 18:34 42.84810 20.40913 22155 ft 479 kts 20°
2026-04-26 18:34 42.87916 20.42600 22158 ft 483 kts 26°
2026-04-26 18:34 42.90853 20.44850 22170 ft 487 kts 32°
2026-04-26 18:34 42.93713 20.47369 22163 ft 491 kts 33°
2026-04-26 18:35 42.96561 20.49972 22157 ft 494 kts 33°
2026-04-26 18:35 42.99608 20.52120 22161 ft 495 kts 18°
2026-04-26 18:35 43.02951 20.53255 22169 ft 495 kts
2026-04-26 18:35 43.06370 20.53641 22169 ft 490 kts
2026-04-26 18:36 43.09750 20.54051 22166 ft 486 kts
2026-04-26 18:36 43.13119 20.54345 22157 ft 483 kts
2026-04-26 18:36 43.16460 20.54677 22151 ft 481 kts
2026-04-26 18:36 43.19798 20.54992 22151 ft 480 kts
2026-04-26 18:37 43.23131 20.55313 22135 ft 479 kts
2026-04-26 18:37 43.26459 20.55569 22125 ft 479 kts
2026-04-26 18:37 43.29777 20.55886 22120 ft 477 kts
2026-04-26 18:37 43.33095 20.55967 22117 ft 477 kts 355°
2026-04-26 18:38 43.36369 20.55220 22118 ft 476 kts 345°
2026-04-26 18:38 43.39510 20.53803 22117 ft 475 kts 341°
2026-04-26 18:38 43.42700 20.52688 22116 ft 473 kts 355°
2026-04-26 18:38 43.45980 20.52865 22134 ft 472 kts
2026-04-26 18:39 43.49217 20.53625 22140 ft 471 kts
2026-04-26 18:39 43.52472 20.54109 22133 ft 471 kts
2026-04-26 18:39 43.55744 20.54644 22137 ft 477 kts
2026-04-26 18:39 43.59069 20.55105 22165 ft 483 kts
2026-04-26 18:40 43.62438 20.55601 22161 ft 489 kts
2026-04-26 18:40 43.65803 20.56079 22162 ft 494 kts
2026-04-26 18:40 43.69243 20.56551 22160 ft 498 kts
2026-04-26 18:40 43.72699 20.56201 22168 ft 500 kts 349°
2026-04-26 18:41 43.76122 20.55193 22173 ft 504 kts 347°
2026-04-26 18:41 43.79540 20.54066 22089 ft 509 kts 346°
2026-04-26 18:41 43.82985 20.52887 21832 ft 509 kts 346°
2026-04-26 18:41 43.86410 20.51680 21574 ft 499 kts 346°
2026-04-26 18:42 43.89663 20.50517 21310 ft 468 kts 345°
2026-04-26 18:42 43.92742 20.49476 21048 ft 445 kts 349°
2026-04-26 18:42 43.95720 20.48903 20635 ft 417 kts 353°
2026-04-26 18:42 43.98515 20.48545 20231 ft 390 kts 354°
2026-04-26 18:43 44.01145 20.48254 19825 ft 369 kts 355°
2026-04-26 18:43 44.03653 20.47997 19405 ft 354 kts 355°
2026-04-26 18:43 44.06092 20.47759 18859 ft 349 kts 355°
2026-04-26 18:43 44.08498 20.47531 18298 ft 344 kts 355°
2026-04-26 18:44 44.10871 20.47314 17645 ft 340 kts 355°
2026-04-26 18:44 44.13229 20.47119 16945 ft 339 kts 355°
2026-04-26 18:44 44.15583 20.46935 16260 ft 337 kts 355°
2026-04-26 18:44 44.17912 20.46762 15600 ft 335 kts 355°
2026-04-26 18:45 44.20205 20.46596 14948 ft 333 kts 355°
2026-04-26 18:45 44.22542 20.46438 14302 ft 330 kts 355°
2026-04-26 18:45 44.24829 20.46295 13633 ft 328 kts 355°
2026-04-26 18:45 44.27083 20.46165 12892 ft 328 kts 355°
2026-04-26 18:46 44.29360 20.46048 12139 ft 328 kts 355°
2026-04-26 18:46 44.31635 20.45943 11384 ft 327 kts 355°
2026-04-26 18:46 44.33934 20.45851 10659 ft 325 kts 355°
2026-04-26 18:46 44.36111 20.45781 9937 ft 315 kts 355°
2026-04-26 18:47 44.38282 20.45722 9153 ft 305 kts 355°
2026-04-26 18:47 44.40339 20.45677 8447 ft 287 kts 355°
2026-04-26 18:47 44.42286 20.45647 7750 ft 273 kts 355°
2026-04-26 18:47 44.44144 20.45629 7069 ft 262 kts 355°
2026-04-26 18:48 44.45875 20.45621 6978 ft 233 kts 355°
2026-04-26 18:48 44.47407 20.45793 6810 ft 218 kts 13°
2026-04-26 18:48 44.48742 20.46895 6262 ft 226 kts 31°
2026-04-26 18:48 44.49855 20.48201 5819 ft 228 kts 34°
2026-04-26 18:49 44.51091 20.49696 5332 ft 242 kts 35°
2026-04-26 18:49 44.52397 20.51252 4989 ft 246 kts 36°
2026-04-26 18:49 44.53669 20.52777 4963 ft 235 kts 36°
2026-04-26 18:49 44.54882 20.54249 4968 ft 227 kts 36°
2026-04-26 18:50 44.56057 20.55685 4953 ft 225 kts 36°
2026-04-26 18:50 44.57265 20.57159 4963 ft 236 kts 36°
2026-04-26 18:50 44.58534 20.58692 4983 ft 245 kts 36°
2026-04-26 18:50 44.59856 20.60277 4994 ft 254 kts 36°
2026-04-26 18:51 44.61222 20.61913 5004 ft 262 kts 36°
2026-04-26 18:51 44.62649 20.63537 5011 ft 265 kts 27°
2026-04-26 18:51 44.64370 20.64306 5031 ft 261 kts 357°
2026-04-26 18:51 44.66125 20.63836 5055 ft 255 kts 340°
2026-04-26 18:52 44.67774 20.62964 5080 ft 252 kts 332°
2026-04-26 18:52 44.69065 20.61400 5099 ft 249 kts 304°
2026-04-26 18:52 44.69869 20.59398 4707 ft 220 kts 299°
2026-04-26 18:52 44.70508 20.57578 4402 ft 197 kts 299°
2026-04-26 18:53 44.71081 20.55910 4119 ft 183 kts 298°
2026-04-26 18:53 44.71576 20.54284 3875 ft 178 kts 302°
2026-04-26 18:53 44.72174 20.52811 3721 ft 172 kts 304°
2026-04-26 18:53 44.72727 20.51475 3499 ft 170 kts 306°
2026-04-26 18:54 44.73336 20.50079 3249 ft 165 kts 307°
2026-04-26 18:54 44.73944 20.48721 3027 ft 163 kts 306°
2026-04-26 18:54 44.74543 20.47392 2852 ft 156 kts 306°
2026-04-26 18:54 44.75076 20.46184 2757 ft 134 kts 307°
2026-04-26 18:55 44.75561 20.45090 2518 ft 128 kts 307°
2026-04-26 18:55 44.76002 20.44102 2348 ft 116 kts 308°
2026-04-26 18:55 44.76433 20.43134 2153 ft 117 kts 309°
2026-04-26 18:55 44.76866 20.42163 1953 ft 117 kts 309°
2026-04-26 18:56 44.77296 20.41203 1784 ft 114 kts 309°
2026-04-26 18:56 44.77714 20.40270 1628 ft 111 kts 309°
2026-04-26 18:56 44.78119 20.39366 1483 ft 108 kts 308°
2026-04-26 18:56 44.78511 20.38481 1333 ft 106 kts 308°
2026-04-26 18:57 44.78898 20.37605 1213 ft 105 kts 308°
2026-04-26 18:57 44.79027 20.37308 1157 ft 106 kts 307°
2026-04-26 18:57 44.79681 20.35843 936 ft 108 kts 306°
2026-04-26 18:57 44.80076 20.34939 785 ft 109 kts 306°
2026-04-26 18:58 44.80467 20.34028 653 ft 108 kts 305°
2026-04-26 18:58 44.80864 20.33119 508 ft 109 kts 304°
2026-04-26 18:58 44.81269 20.32213 385 ft 110 kts 304°
2026-04-26 18:58 44.81653 20.31349 332 ft 90 kts 304°
2026-04-26 18:59 44.81920 20.30751 331 ft 59 kts 302°
2026-04-26 18:59 44.82132 20.30270 324 ft 58 kts 301°
2026-04-26 18:59 44.82326 20.29828 327 ft 27 kts 302°
2026-04-26 18:59 44.82345 20.29753 326 ft 1 kts 253°
2026-04-26 19:00 44.82305 20.29688 327 ft 20 kts 205°
2026-04-26 19:00 44.82215 20.29625 326 ft 0 kts 210°
2026-04-26 19:01 44.82214 20.29625 326 ft 1 kts 210°
2026-04-26 19:01 44.82204 20.29617 327 ft 3 kts 210°
2026-04-26 19:01 44.82183 20.29600 328 ft 4 kts 210°
2026-04-26 19:01 44.82150 20.29574 328 ft 6 kts 210°
2026-04-26 19:02 44.82109 20.29538 326 ft 8 kts 215°
2026-04-26 19:02 44.82061 20.29490 326 ft 9 kts 215°
2026-04-26 19:02 44.82001 20.29440 327 ft 11 kts 209°
2026-04-26 19:02 44.81979 20.29422 326 ft 11 kts 210°
2026-04-26 19:03 44.81950 20.29356 328 ft 10 kts 280°
2026-04-26 19:03 44.81971 20.29321 327 ft 1 kts 308°
2026-04-26 19:03 44.81974 20.29317 324 ft 1 kts 303°
2026-04-26 19:03 44.81976 20.29311 324 ft 0 kts 302°